TimeCDT,TemperatureF,Dew PointF,Humidity,Sea Level PressureIn,VisibilityMPH,Wind Direction,Wind SpeedMPH,Gust SpeedMPH,PrecipitationIn,Events,Conditions,WindDirDegrees,DateUTC
12:31 AM,33.8,32.0,93,30.11,10.0,North,16.1,-,N/A,,Mostly Cloudy,10,2012-10-11 05:31:00
12:37 AM,33.8,32.0,93,30.12,10.0,North,13.8,21.9,N/A,,Mostly Cloudy,360,2012-10-11 05:37:00
12:52 AM,34.0,32.0,92,30.18,10.0,North,15.0,-,N/A,,Mostly Cloudy,10,2012-10-11 05:52:00
1:06 AM,33.8,32.0,93,30.13,10.0,North,13.8,-,N/A,,Overcast,360,2012-10-11 06:06:00
1:52 AM,33.8,32.0,93,30.15,10.0,North,11.5,-,N/A,,Overcast,360,2012-10-11 06:52:00
2:13 AM,33.8,32.0,93,30.15,8.0,North,10.4,-,0.00,Snow,Light Snow,360,2012-10-11 07:13:00
2:41 AM,33.8,30.2,87,30.16,10.0,North,8.1,-,0.00,,Overcast,360,2012-10-11 07:41:00
2:52 AM,33.1,30.9,92,30.22,10.0,North,8.1,-,0.00,,Mostly Cloudy,350,2012-10-11 07:52:00
3:52 AM,33.1,30.9,92,30.25,10.0,NNW,6.9,-,N/A,,Mostly Cloudy,340,2012-10-11 08:52:00
4:52 AM,33.1,30.9,92,30.27,10.0,NNW,6.9,-,N/A,,Mostly Cloudy,330,2012-10-11 09:52:00
5:36 AM,33.8,30.2,87,30.23,10.0,NW,8.1,-,N/A,,Overcast,320,2012-10-11 10:36:00
5:52 AM,33.1,30.0,89,30.30,10.0,NNW,8.1,-,N/A,,Overcast,330,2012-10-11 10:52:00
6:30 AM,33.8,30.2,87,30.25,10.0,NNW,9.2,-,N/A,,Overcast,340,2012-10-11 11:30:00
6:36 AM,33.8,30.2,87,30.25,10.0,NNW,8.1,-,N/A,,Overcast,340,2012-10-11 11:36:00
6:52 AM,33.1,30.0,89,30.32,10.0,NNW,9.2,-,N/A,,Overcast,340,2012-10-11 11:52:00
7:41 AM,32.0,28.4,87,30.27,10.0,NNW,5.8,-,N/A,,Overcast,330,2012-10-11 12:41:00
7:52 AM,32.0,28.9,88,30.35,10.0,NNW,5.8,-,N/A,,Overcast,340,2012-10-11 12:52:00
8:15 AM,32.0,28.4,87,30.29,10.0,North,8.1,-,N/A,,Scattered Clouds,350,2012-10-11 13:15:00
8:52 AM,32.0,28.4,87,30.30,10.0,NNW,9.2,-,N/A,,Partly Cloudy,340,2012-10-11 13:52:00
9:52 AM,32.0,28.4,87,30.32,10.0,North,9.2,-,N/A,,Mostly Cloudy,360,2012-10-11 14:52:00
10:41 AM,33.8,28.4,81,30.34,10.0,North,10.4,-,N/A,,Overcast,350,2012-10-11 15:41:00
10:49 AM,33.8,26.6,75,30.34,10.0,North,9.2,-,N/A,,Mostly Cloudy,350,2012-10-11 15:49:00
10:52 AM,33.1,27.0,78,30.41,10.0,North,9.2,-,N/A,,Mostly Cloudy,350,2012-10-11 15:52:00
11:52 AM,35.1,27.0,72,30.42,10.0,North,6.9,-,N/A,,Mostly Cloudy,350,2012-10-11 16:52:00
12:52 PM,36.0,26.1,67,30.41,10.0,Variable,3.5,-,N/A,,Mostly Cloudy,0,2012-10-11 17:52:00
12:57 PM,37.4,26.6,65,30.35,10.0,Calm,Calm,-,N/A,,Mostly Cloudy,0,2012-10-11 17:57:00
1:10 PM,37.4,24.8,60,30.34,10.0,Calm,Calm,-,N/A,,Mostly Cloudy,0,2012-10-11 18:10:00
1:52 PM,37.9,24.1,57,30.40,10.0,NW,4.6,-,N/A,,Partly Cloudy,320,2012-10-11 18:52:00
2:52 PM,37.4,21.2,52,30.33,10.0,Calm,Calm,-,N/A,,Mostly Cloudy,0,2012-10-11 19:52:00
3:52 PM,39.0,21.9,50,30.39,10.0,Calm,Calm,-,N/A,,Overcast,0,2012-10-11 20:52:00
4:52 PM,41.0,21.2,45,30.31,10.0,NNW,4.6,-,N/A,,Mostly Cloudy,340,2012-10-11 21:52:00
5:52 PM,39.0,21.0,49,30.36,10.0,Variable,4.6,-,N/A,,Mostly Cloudy,0,2012-10-11 22:52:00
6:52 PM,37.0,21.9,54,30.35,10.0,South,3.5,-,N/A,,Clear,180,2012-10-11 23:52:00
7:52 PM,35.6,21.2,56,30.28,10.0,SE,3.5,-,N/A,,Clear,130,2012-10-12 00:52:00
8:52 PM,32.0,21.9,66,30.35,10.0,Calm,Calm,-,N/A,,Scattered Clouds,0,2012-10-12 01:52:00
9:52 PM,33.8,23.0,65,30.25,10.0,Calm,Calm,-,N/A,,Overcast,0,2012-10-12 02:52:00
10:52 PM,35.6,24.8,65,30.23,10.0,SE,5.8,-,N/A,,Overcast,140,2012-10-12 03:52:00
11:52 PM,35.6,24.8,65,30.21,10.0,SSE,9.2,18.4,N/A,,Overcast,150,2012-10-12 04:52:00